Location: Anjeux
(47.8815°N, 6.2076°E)
Time: 00:37:40
(UTC+00:00)

Daily predictions for brighter satellites

Satellite Brightness Start Highest point End
(mag) Time Altitude Azimuth Time Altitude Azimuth Time Altitude Azimuth
Cosmos 2344 4.5 02:43:59 40° E 02:43:59 40° E 02:49:29 10° NE
Cosmos 2369 Rocket 4.5 03:18:40 10° SE 03:22:38 20° E 03:26:37 10° NE
CENTAUR R/B 3.1 03:29:56 54° E 03:29:56 54° E 03:35:51 10° NE
BREEZE-M DEB (TANK) 4.3 03:37:39 38° ESE 03:37:39 38° ESE 03:43:41 10° ESE
NOSS 3-2 (A) 3.9 03:44:15 54° NE 03:44:15 54° NE 03:49:15 10° NE
Cosmos 1943 Rocket 2.8 03:48:57 51° NE 03:48:57 51° NE 03:53:17 10° NNE
CZ-2C R/B 4.1 03:45:50 10° SE 03:50:43 34° ENE 03:54:18 16° N
NOSS 3-2 (C) 3.7 03:50:59 59° SE 03:51:02 59° ESE 03:57:20 10° NE
Cosmos 968 Rocket 3.9 04:04:53 58° ESE 04:05:11 59° ESE 04:10:13 10° NNE
COSMO-SKYMED 1 3.9 04:02:02 10° SE 04:06:01 37° ENE 04:06:41 34° NE
Cosmos 2297 3.8 04:09:09 69° NNE 04:09:09 69° NNE 04:14:09 10° NNE
Cosmos 1634 Rocket 4.3 04:03:39 10° N 04:09:56 66° ENE 04:16:07 10° SSE
Cosmos 2278 Rocket 4.1 04:19:52 16° N 04:19:52 16° N 04:21:26 10° N
USA 238 DEB 3.5 04:17:39 60° SW 04:18:59 86° NW 04:25:55 10° NE
USA 238 3.5 04:17:43 60° SW 04:19:05 87° NW 04:26:01 10° NE
Tsikada Rocket 3.8 04:14:16 10° S 04:20:28 85° W 04:26:48 10° N
USA 215 3.3 04:19:55 10° ESE 04:26:26 77° NNE 04:28:33 46° NW
Meteor 2-3 Rocket 3.6 04:32:53 47° SW 04:34:27 68° WNW 04:40:12 10° N
Cosmos 1833 4.5 04:39:21 27° NNW 04:42:29 68° ENE 04:48:11 10° SE
Cosmos 1812 3.2 04:43:27 52° S 04:43:27 52° S 04:46:24 10° S
SJ 16-02 4.4 04:40:47 10° SE 04:43:28 16° E 04:46:10 10° ENE
SL-8 R/B 3.6 04:45:54 66° WSW 04:46:28 77° SSW 04:51:15 10° ESE
CZ-4B R/B 4.4 04:45:24 10° NNE 04:49:51 69° ESE 04:54:18 10° S
Meteor 1-26 Rocket 4.4 04:48:36 43° NW 04:49:53 51° W 04:55:26 10° SSW
Landsat 5 3.6 04:49:10 10° SSE 04:53:41 84° ENE 04:56:28 23° NNW
SKYMED 2 3.4 04:49:39 10° S 04:53:59 76° WSW 04:55:17 44° NNW
Cosmos 836 Rocket 4.4 04:52:06 39° NW 04:54:04 73° WSW 04:59:15 10° SSE
CZ-4B R/B 4.5 04:52:58 10° E 04:54:07 11° ENE 04:55:16 10° NE
Gblst 52 Del rocket 4.4 04:52:05 43° W 04:54:11 71° NNW 05:01:05 10° ENE
Cosmos 2263 4.4 04:48:54 10° SSW 04:54:34 75° ESE 05:00:19 10° NNE
SL-19 R/B 4.3 04:50:12 10° S 04:55:40 55° WSW 04:58:03 32° NW
Cosmos 2344 3.8 04:54:02 35° W 04:56:38 48° NW 05:04:32 10° NE
Cosmos 2297 Rocket 4.4 04:56:07 10° N 04:59:58 18° NE 05:03:47 10° E
Cosmos 921 Rocket 3.7 05:03:15 37° SW 05:03:15 37° SW 05:06:46 10° S
Meteor 2-13 Rocket 4.4 04:57:50 10° SSW 05:03:53 61° WNW 05:09:56 10° N
Meteor 1-31 Rocket 2.6 05:00:13 10° NNE 05:04:08 87° WNW 05:08:02 10° SSW
Cosmos 2369 Rocket 2.1 05:00:30 10° SW 05:06:04 70° WNW 05:11:42 10° NNE
Kosmos-917 4.2 05:07:19 43° NW 05:07:24 43° NW 05:12:26 10° NE
CZ-4C R/B 2.6 05:04:40 10° SSE 05:07:48 86° E 05:08:20 58° N
IRAS Rocket 4.5 05:03:56 10° SSE 05:09:24 70° ENE 05:14:52 10° NNW
Cosmos 1503 Rocket 4.2 05:04:17 10° SSW 05:09:31 75° ESE 05:14:52 10° NNE
H-2A R/B 3.2 05:08:08 10° SE 05:12:10 42° ENE 05:16:18 10° N
BREEZE-M DEB (TANK) 2.9 05:11:22 48° WNW 05:12:12 72° N 05:19:26 10° E
H-2A R/B 2.8 05:09:15 10° N 05:12:51 48° WNW 05:16:28 10° SSW
FALCON 9 DEB 3.9 05:14:31 30° N 05:14:31 30° N 05:16:43 10° NE
Okean 3 Rocket 3.5 05:09:45 10° SSW 05:14:17 76° W 05:18:52 10° N
DNEPR-1 R/B 4.0 05:14:05 33° WNW 05:16:06 58° WSW 05:21:40 10° SSE
Cosmos 1151 Rocket 3.3 05:15:08 32° NW 05:16:37 45° W 05:20:48 10° SSW
Cosmos 1486 Rocket 4.0 05:11:46 10° SW 05:17:00 60° WNW 05:22:14 10° NNE
Cosmos 1862 3.2 05:13:30 10° SSW 05:17:24 61° W 05:21:20 10° N
DMSP B5D2-2 4.2 05:12:59 10° SSE 05:18:11 75° ENE 05:23:24 10° N
CENTAUR R/B 3.1 05:17:08 27° W 05:20:01 41° NNW 05:27:02 10° NE
SJ-12 4.3 05:18:57 10° N 05:22:52 41° WNW 05:26:45 10° SW
Cosmos 1656 Rocket 3.5 05:18:23 10° SW 05:23:46 69° WNW 05:29:13 10° NNE
Cosmos 1766 Rocket 3.6 05:19:51 10° SSW 05:24:05 53° WNW 05:28:20 10° N
Cosmos 773 Rocket 4.0 05:20:38 12° NNW 05:25:33 86° ENE 05:30:45 10° SSE
CZ-2C R/B 3.1 05:25:49 10° SSW 05:30:56 39° W 05:35:48 11° NNW
Cosmos 1943 Rocket 3.2 05:30:31 24° WNW 05:31:55 26° NW 05:36:37 10° N
Cosmos 1328 Rocket 3.8 05:29:16 16° NNW 05:32:29 44° W 05:36:36 10° SSW
NOSS 3-2 (A) 4.4 05:31:40 22° WNW 05:34:24 31° NNW 05:40:27 10° NE
Cosmos 2227 Rocket 4.2 05:31:19 10° N 05:35:41 22° NE 05:40:01 10° E
Envisat 3.4 05:32:46 10° N 05:37:29 39° WNW 05:42:10 10° SW
CZ-4B R/B 2.8 05:34:12 10° NNE 05:37:48 73° ESE 05:41:22 10° S
Cosmos 2279 Rocket 4.2 05:32:52 10° NNW 05:38:42 45° W 05:44:30 10° SSW
SL-27 R/B 2.4 05:36:26 17° NNW 05:39:10 80° WSW 05:42:41 10° SSE
Lacrosse 4 Rocket 4.0 05:39:55 10° N 05:41:51 12° NNE 05:43:47 10° ENE
COSMO-SKYMED 1 3.6 05:38:41 10° SSW 05:42:16 25° W 05:43:53 20° WNW
NOSS 3-2 (C) 4.0 05:38:28 19° W 05:42:17 38° NNW 05:48:35 10° NE
Alouette 2 Rocket 3.7 05:38:50 10° N 05:42:44 62° ENE 05:46:15 10° SSE
Cosmos 2098 Rocket 4.0 05:43:19 10° SW 05:46:54 28° WNW 05:51:18 10° N
ATLAS 3B R/B 3.6 05:41:47 10° SSW 05:48:02 51° ESE 05:54:36 10° NE
NOAA 12 4.2 05:42:58 10° NNE 05:48:17 81° ESE 05:53:31 10° SSW
Nadezhda 4 Rocket 3.9 05:44:01 10° SSW 05:50:10 81° W 05:56:28 10° N
Meteor 2-15 Rocket 4.4 05:45:23 10° NNW 05:51:25 67° W 05:57:24 10° S
NOAA 11 4.2 05:48:12 10° N 05:53:36 63° WNW 05:59:00 10° SSW
Meteor 1-27 Rocket 3.7 05:48:15 10° NNW 05:53:51 69° W 05:59:32 10° S
BREEZE M DEB (TANK) 2.0 05:53:54 18° WNW 05:56:14 72° N 05:58:20 10° E
Cosmos 158 Rocket 4.2 05:51:14 10° NNW 05:56:21 73° ENE 06:01:34 10° SSE
Cosmos 2228 Rocket 3.4 05:52:46 10° N 05:57:16 70° E 06:01:47 10° SSE
Cosmos 1174 4.0 05:54:26 10° SSW 05:57:19 51° ESE 06:00:22 10° NE
Cosmos 1408 Rocket 3.7 05:54:19 10° SSW 05:58:29 48° WNW 06:02:40 10° N
SMAP 3.4 05:54:35 10° NNE 05:59:16 72° ESE 06:03:54 10° S
PSLV R/B 4.4 05:58:58 10° SSE 06:02:58 62° ENE 06:07:02 10° N
Cosmos 1092 Rocket 4.2 05:59:18 10° S 06:05:33 81° E 06:11:54 10° N
Cosmos 1743 Rocket 3.5 06:02:13 10° SSW 06:06:36 74° W 06:10:59 10° N
Cosmos 1340 Rocket 2.7 06:04:29 10° SSW 06:08:24 70° WNW 06:12:25 10° N
USA 215 3.9 06:03:44 10° SSE 06:09:46 40° SW 06:15:51 10° WNW
ADEOS 3.9 06:04:58 10° N 06:09:52 41° WNW 06:14:43 10° SW
Cosmos 1354 Rocket 4.3 06:05:22 10° SW 06:10:25 44° WNW 06:15:31 10° NNE
USA 238 DEB 4.5 06:05:08 10° W 06:10:52 31° NNW 06:17:02 10° NE
USA 238 4.5 06:05:12 10° W 06:10:57 31° NNW 06:17:09 10° NE
FALCON 9 DEB 4.0 06:09:43 13° WNW 06:12:18 34° N 06:15:27 10° ENE
Cosmos 1515 Rocket 4.4 06:10:08 10° NNW 06:13:56 30° W 06:17:43 10° SSW
AQUARIUS 4.2 06:13:03 10° NNE 06:17:34 87° WNW 06:22:04 10° SSW
Cosmos 1939 Rocket 2.9 06:14:01 10° N 06:17:54 55° WNW 06:21:41 10° SSW
ATLAS 5 CENTAUR R/B 1.4 06:15:39 10° SW 06:19:29 89° SE 06:23:53 10° NE
Cosmos 1500 3.6 06:16:50 10° S 06:20:36 66° E 06:24:23 10° NNE
SJ 16-02 1.4 06:17:14 10° SW 06:21:33 58° WNW 06:25:54 10° NNE
CZ-2C R/B 3.3 06:17:17 10° N 06:21:52 43° WNW 06:26:36 10° SW
FALCON 9 DEB 3.9 06:21:03 10° WNW 06:23:34 28° N 06:26:09 10° ENE
CZ-4B R/B 1.5 06:22:25 10° S 06:25:41 55° W 06:28:55 10° NNW
EO 1 Delta rocket 4.4 06:19:32 10° N 06:26:20 80° WNW 06:31:39 10° SSW
Meteor 1-25 Rocket 4.2 06:20:43 10° SSW 06:26:21 81° WNW 06:31:57 10° N
Cosmos 1515 4.0 06:24:36 10° NNW 06:28:14 44° W 06:31:51 10° SSW
FALCON 9 DEB 3.8 06:26:16 10° NW 06:28:51 30° N 06:31:27 10° ENE
Cosmos 1689 Rocket 4.2 06:27:30 10° ESE 06:29:36 22° ENE 06:31:42 10° NNE
FALCON 9 DEB 3.8 06:27:41 10° NW 06:30:18 31° N 06:32:55 10° ENE
Cosmos 1500 Rocket 4.2 06:31:06 10° SW 06:35:14 37° WNW 06:39:25 10° N
